Terminal Aerodrome Forecast
Issued by NWS Wilmington, NC

Home | Current Version | Previous Version | Text Only | Print | Product List | Glossary On
Versions: 1 2 3 4 5 6 7 8 9 10 11 12 13 14 15 16 17 18 19
000
FTUS42 KILM 300500
TAFILM
TAF
KILM 300526Z 3006/3106 26010KT P6SM VCSH BKN070 OVC100
      TEMPO 3006/3010 -SHRA SCT025 BKN050
     FM301300 31016G26KT P6SM FEW050
     FM310000 32010KT P6SM SKC=

USA.gov is the U.S. government's official web portal to all federal, state and local government web resources and services.